Satellite: HUBBLE
Catalog number: 20580
Epoch time: 11004.24385423
Element set: 696
Inclination: 028.4705 deg
RA of node: 007.1641 deg
Eccentricity: 0.0003638
Arg of perigee: 177.7199 deg
Mean anomaly: 182.3474 deg
Mean motion: 15.01131757 rev/day
Decay rate: 5.55e-06 rev/day^2
Epoch rev: 93499
Checksum: 297
Satellite: ISS
Catalog number: 25544
Epoch time: 11007.07083667
Element set: 593
Inclination: 051.6474 deg
RA of node: 266.8629 deg
Eccentricity: 0.0005221
Arg of perigee: 110.9511 deg
Mean anomaly: 032.4565 deg
Mean motion: 15.72554949 rev/day
Decay rate: 1.2324e-04 rev/day^2
Epoch rev: 69554
Checksum: 301
Satellite: CO-58
Catalog number: 28895
Epoch time: 11006.19307638
Element set: 769
Inclination: 097.9896 deg
RA of node: 248.6218 deg
Eccentricity: 0.0018110
Arg of perigee: 012.5354 deg
Mean anomaly: 347.6279 deg
Mean motion: 14.59990489 rev/day
Decay rate: 2.09e-06 rev/day^2
Epoch rev: 27660
Checksum: 360
Satellite: FALCON
Catalog number: 30776
Epoch time: 11006.89934066
Element set: 994
Inclination: 035.4335 deg
RA of node: 247.1817 deg
Eccentricity: 0.0000229
Arg of perigee: 227.1830 deg
Mean anomaly: 132.8867 deg
Mean motion: 15.04050258 rev/day
Decay rate: 8.69e-06 rev/day^2
Epoch rev: 21074
Checksum: 298
Satellite: MAST
Catalog number: 31126
Epoch time: 11005.59503955
Element set: 0053
Inclination: 097.9146 deg
RA of node: 041.8698 deg
Eccentricity: 0.0093967
Arg of perigee: 317.2723 deg
Mean anomaly: 042.1194 deg
Mean motion: 14.53660989 rev/day
Decay rate: 7.0e-07 rev/day^2
Epoch rev: 19746
Checksum: 316
Satellite: CAPE1
Catalog number: 31130
Epoch time: 11005.63450173
Element set: 0074
Inclination: 097.9178 deg
RA of node: 038.9350 deg
Eccentricity: 0.0101728
Arg of perigee: 326.6647 deg
Mean anomaly: 032.8164 deg
Mean motion: 14.52276071 rev/day
Decay rate: 3.35e-06 rev/day^2
Epoch rev: 19704
Checksum: 278
Satellite: COMPASS
Catalog number: 32787
Epoch time: 11006.73618486
Element set: 875
Inclination: 097.8701 deg
RA of node: 073.4341 deg
Eccentricity: 0.0015658
Arg of perigee: 346.4930 deg
Mean anomaly: 013.5867 deg
Mean motion: 14.82100729 rev/day
Decay rate: 3.36e-06 rev/day^2
Epoch rev: 14564
Checksum: 311
Satellite: AAUSAT2
Catalog number: 32788
Epoch time: 11005.70605469
Element set: 0866
Inclination: 097.8710 deg
RA of node: 072.5974 deg
Eccentricity: 0.0015057
Arg of perigee: 351.6944 deg
Mean anomaly: 008.3974 deg
Mean motion: 14.82261312 rev/day
Decay rate: 6.00e-06 rev/day^2
Epoch rev: 14550
Checksum: 301
Satellite: DO-64
Catalog number: 32789
Epoch time: 11005.68743760
Element set: 0881
Inclination: 097.8797 deg
RA of node: 073.3126 deg
Eccentricity: 0.0015194
Arg of perigee: 349.0493 deg
Mean anomaly: 011.0398 deg
Mean motion: 14.82530770 rev/day
Decay rate: 1.174e-05 rev/day^2
Epoch rev: 14550
Checksum: 321
Satellite: CO-66
Catalog number: 32791
Epoch time: 11006.79007790
Element set: 866
Inclination: 097.8712 deg
RA of node: 073.4690 deg
Eccentricity: 0.0015741
Arg of perigee: 345.2512 deg
Mean anomaly: 014.8226 deg
Mean motion: 14.81846708 rev/day
Decay rate: -1.59e-06 rev/day^2
Epoch rev: 14560
Checksum: 316
Satellite: RS-30
Catalog number: 32953
Epoch time: 11006.76705946
Element set: 365
Inclination: 082.5019 deg
RA of node: 263.0831 deg
Eccentricity: 0.0019756
Arg of perigee: 020.5859 deg
Mean anomaly: 339.6010 deg
Mean motion: 12.43010126 rev/day
Decay rate: 1.0e-07 rev/day^2
Epoch rev: 11903
Checksum: 264
Satellite: TACSAT-3
Catalog number: 35001
Epoch time: 11005.57070625
Element set: 0488
Inclination: 040.4547 deg
RA of node: 076.3355 deg
Eccentricity: 0.0021588
Arg of perigee: 077.8547 deg
Mean anomaly: 282.4686 deg
Mean motion: 15.44301578 rev/day
Decay rate: 6.782e-05 rev/day^2
Epoch rev: 09190
Checksum: 311
Satellite: PHARMSAT
Catalog number: 35002
Epoch time: 11005.60098602
Element set: 440
Inclination: 040.4692 deg
RA of node: 073.6660 deg
Eccentricity: 0.0023578
Arg of perigee: 082.4320 deg
Mean anomaly: 277.9174 deg
Mean motion: 15.44561913 rev/day
Decay rate: 5.983e-05 rev/day^2
Epoch rev: 9193
Checksum: 284
Satellite: HAWKSAT1
Catalog number: 35003
Epoch time: 11006.48667854
Element set: 480
Inclination: 040.4572 deg
RA of node: 054.8524 deg
Eccentricity: 0.0022332
Arg of perigee: 114.9470 deg
Mean anomaly: 245.3671 deg
Mean motion: 15.50732267 rev/day
Decay rate: 1.7174e-04 rev/day^2
Epoch rev: 9222
Checksum: 276
Satellite: CP6
Catalog number: 35004
Epoch time: 11006.50115917
Element set: 482
Inclination: 040.4587 deg
RA of node: 051.3626 deg
Eccentricity: 0.0021756
Arg of perigee: 121.5889 deg
Mean anomaly: 238.7052 deg
Mean motion: 15.52801392 rev/day
Decay rate: 2.0444e-04 rev/day^2
Epoch rev: 9225
Checksum: 277
Satellite: AEROCUB3
Catalog number: 35005
Epoch time: 11006.09222617
Element set: 610
Inclination: 040.4461 deg
RA of node: 021.7975 deg
Eccentricity: 0.0025578
Arg of perigee: 084.1677 deg
Mean anomaly: 280.7191 deg
Mean motion: 16.39196088 rev/day
Decay rate: 1.4049365e-01 rev/day^2
Epoch rev: 9254
Checksum: 305
Satellite: METEOR-M
Catalog number: 35865
Epoch time: 11006.64893187
Element set: 988
Inclination: 098.7319 deg
RA of node: 063.6946 deg
Eccentricity: 0.0002930
Arg of perigee: 123.2974 deg
Mean anomaly: 236.8454 deg
Mean motion: 14.21833934 rev/day
Decay rate: 1.76e-06 rev/day^2
Epoch rev: 6763
Checksum: 335
Satellite: RS-38
Catalog number: 35869
Epoch time: 11006.66818595
Element set: 0
Inclination: 098.7293 deg
RA of node: 063.7533 deg
Eccentricity: 0.0005117
Arg of perigee: 130.5111 deg
Mean anomaly: 229.6489 deg
Mean motion: 14.21997411 rev/day
Decay rate: 1.77e-06 rev/day^2
Epoch rev: 6764
Checksum: 316
/EX
1
0